Printer-friendly version

IAU Minor Planet Center

Minor Planet Center

MPEC 2000-F29: 2000 EB107

The following Minor Planet Electronic Circular may be linked-to from your own Web pages, but must not otherwise be redistributed electronically.


Read MPEC 2000-F28 Read MPEC 2000-F30


M.P.E.C. 2000-F29                                Issued 2000 Mar. 24, 00:07 UT

     The Minor Planet Electronic Circulars contain information on unusual
         minor planets and routine data on comets.  They are published
   on behalf of Commission 20 of the International Astronomical Union by the
          Minor Planet Center, Smithsonian Astrophysical Observatory,
                          Cambridge, MA 02138, U.S.A.

             Prepared using the Tamkin Foundation Computer Network

             BMARSDEN@CFA.HARVARD.EDU or GWILLIAMS@CFA.HARVARD.EDU
          URL http://cfa-www.harvard.edu/iau/mpc.html  ISSN 1523-6714

                                  2000 EB107

Observations:
     K00EA7B  C2000 03 09.24024 10 19 17.69 -06 37 23.6          18.4        704
     K00EA7B  C2000 03 09.25381 10 19 17.39 -06 36 49.7          18.5        704
     K00EA7B  C2000 03 09.26784 10 19 17.06 -06 36 13.1          18.7        704
     K00EA7B  C2000 03 09.28087 10 19 16.71 -06 35 40.4          18.8        704
     K00EA7B  C2000 03 09.29442 10 19 16.34 -06 35 05.1          18.7        704
     K00EA7B* C2000 03 12.33189 10 18 22.22 -04 20 28.2          17.6        704
     K00EA7B  C2000 03 12.34460 10 18 21.97 -04 19 52.6          18.0        704
     K00EA7B  C2000 03 12.35734 10 18 21.68 -04 19 17.5          18.4        704
     K00EA7B  C2000 03 12.37005 10 18 21.48 -04 18 42.6          18.3        704
     K00EA7B  C2000 03 12.38277 10 18 21.18 -04 18 07.1          18.2        704
     K00EA7B  C2000 03 13.17440 10 18 10.47 -03 41 15.8          18.3        704
     K00EA7B  C2000 03 13.18760 10 18 10.15 -03 40 38.2          18.5        704
     K00EA7B  C2000 03 13.20081 10 18 09.98 -03 40 01.1          19.0        704
     K00EA7B  C2000 03 13.21398 10 18 09.67 -03 39 24.4          18.2        704
     K00EA7B  C2000 03 13.30091 10 18 07.87 -03 35 18.7          16.9        704
     K00EA7B  C2000 03 13.31396 10 18 07.65 -03 34 40.4          17.4        704
     K00EA7B  C2000 03 13.32743 10 18 07.36 -03 34 03.0          17.6        704
     K00EA7B  C2000 03 13.34246 10 18 07.07 -03 33 21.0          17.2        704
     K00EA7B  C2000 03 14.19035 10 17 56.66 -02 52 58.2          17.5 R      703
     K00EA7B  C2000 03 14.20631 10 17 56.40 -02 52 11.8          17.5 R      703
     K00EA7B  C2000 03 14.22213 10 17 56.09 -02 51 26.5          17.6 R      703
     K00EA7B  C2000 03 14.23808 10 17 55.79 -02 50 40.5          17.8 R      703
     K00EA7B  C2000 03 15.17279 10 17 45.15 -02 05 17.1          17.3        704
     K00EA7B  C2000 03 15.18552 10 17 44.94 -02 04 39.2          18.0        704
     K00EA7B  C2000 03 15.19822 10 17 44.69 -02 04 00.8          17.7        704
     K00EA7B  C2000 03 15.21097 10 17 44.46 -02 03 24.0          17.4        704
     K00EA7B  C2000 03 20.62549 10 17 15.97 +02 35 10.9          17.4 V      402
     K00EA7B  C2000 03 20.62701 10 17 15.86 +02 35 16.3                      402
     K00EA7B  C2000 03 20.62854 10 17 15.87 +02 35 19.9                      402
     K00EA7B  C2000 03 20.63007 10 17 15.87 +02 35 24.4                      402
     K00EA7B  C2000 03 21.78102 10 17 19.69 +03 37 21.7                      557
     K00EA7B  C2000 03 21.78277 10 17 19.67 +03 37 28.2          17.6 V      557
     K00EA7B  C2000 03 21.82775 10 17 19.72 +03 39 54.8          16.9 R      046
     K00EA7B  C2000 03 21.82904 10 17 19.73 +03 39 59.2                      046
     K00EA7B  C2000 03 21.83006 10 17 19.73 +03 40 02.6                      046
     K00EA7B  C2000 03 21.83162 10 17 19.71 +03 40 07.3                      046
     K00EA7B  C2000 03 21.91051 10 17 19.77 +03 44 23.3          17.4 R      163
     K00EA7B  C2000 03 21.91557 10 17 19.68 +03 44 39.9          17.2 R      163
     K00EA7B  C2000 03 21.91944 10 17 19.67 +03 44 52.7          17.5 R      163
     K00EA7B  C2000 03 21.93677 10 17 19.57 +03 45 49.5                      595
     K00EA7B  C2000 03 21.94017 10 17 19.58 +03 45 59.7                      595
     K00EA7B  C2000 03 21.94628 10 17 19.60 +03 46 19.9          17.7 V      595
     K00EA7B  C2000 03 21.95197 10 17 19.56 +03 46 39.6                      595
     K00EA7B  C2000 03 21.98406 10 17 19.64 +03 48 23.0                      118
     K00EA7B  C2000 03 21.98528 10 17 19.59 +03 48 29.0                      118
     K00EA7B  C2000 03 21.99081 10 17 19.49 +03 48 44.9          16.4 R      118
     K00EA7B  C2000 03 22.83303 10 17 25.13 +04 34 42.8          17.2 R      046
     K00EA7B  C2000 03 22.83391 10 17 25.15 +04 34 45.8                      046
     K00EA7B  C2000 03 22.83564 10 17 25.15 +04 34 51.7                      046
     K00EA7B  C2000 03 22.83674 10 17 25.13 +04 34 55.5                      046
     K00EA7B  C2000 03 22.85032 10 17 25.14 +04 35 39.8          17.2 R      118
     K00EA7B  C2000 03 22.85560 10 17 25.15 +04 35 57.0                      118
     K00EA7B  C2000 03 22.85691 10 17 25.14 +04 36 01.3                      118
     K00EA7B  C2000 03 23.12361 10 17 27.24 +04 50 41.8          17.4 R      850
     K00EA7B  C2000 03 23.13576 10 17 27.25 +04 51 22.2          17.6 R      850
     K00EA7B  C2000 03 23.14792 10 17 27.27 +04 52 02.8          17.7 R      850
     K00EA7B  C2000 03 23.16493 10 17 27.28 +04 52 58.4          17.5 R      850
     K00EA7B 1C2000 03 23.20926 10 17 27.94 +04 55 21.2                      658
     K00EA7B 1C2000 03 23.21302 10 17 27.94 +04 55 33.8                      658
     K00EA7B 1C2000 03 23.21618 10 17 27.97 +04 55 44.3                      658
     K00EA7B  C2000 03 23.80904 10 17 33.20 +05 28 23.4                      557
     K00EA7B  C2000 03 23.81067 10 17 33.19 +05 28 28.6                      557
     K00EA7B  C2000 03 23.81230 10 17 33.17 +05 28 34.1                      557
     K00EA7B  C2000 03 23.81394 10 17 33.18 +05 28 39.7                      557
     K00EA7B  C2000 03 23.89661 10 17 33.57 +05 33 14.3                      118
     K00EA7B  C2000 03 23.90068 10 17 33.57 +05 33 27.6                      118
     K00EA7B  C2000 03 23.90383 10 17 33.58 +05 33 38.2          16.8 R      118

Observer details:
046 Klet.  Observers M. Tichy, Z. Moravec.  0.57-m f/5.2 reflector + CCD.
118 Modra.  Observers L. Kornos, P. Koleny, J. Toth.  0.6-m f/5.5 reflector
    + CCD.
163 Roeser Observatory, Luxembourg.  Observer M. Dawson.  0.457-m f/4.5
    reflector + CCD.
402 Dynic Astronomical Observatory.  Observer A. Sugie.  0.60-m f/3.7 reflector
    + CCD.
557 Ondrejov.  Observer L. Sarounova.  0.65-m f/3.6 reflector + CCD.
595 Farra d'Isonzo.  Observers G. Lombardi, A. Toso, E. Pettarin.  0.40-m f/4.5
    reflector + CCD.
658 Dominion Astrophysical Observatory.  Observer D. D. Balam.  1.82-m
    reflector + CCD.
703 Catalina Sky Survey.  Observer T. B. Spahr.  0.41-m f/3 Schmidt + CCD.
704 Lincoln Laboratory ETS, New Mexico.  Observers M. Blythe, F. Shelly,
    M. Bezpalko, M. Elowitz, R. Huber.  Measurers J. Stuart, H. Viggh,
    R. Sayer, J. B. Evans.  1.0-m f/2.15 reflector + CCD.
850 Cordell-Lorenz Observatory, Sewanee.  Observer D. T. Durig.  0.3-m f/5.75
    Schmidt-Cassegrain + CCD.

Orbital elements:
2000 EB107
Epoch 2000 Mar. 17.0 TT = JDT 2451620.5                 Williams
M 347.77242              (2000.0)            P               Q
n   0.18685193     Peri.   43.46808     -0.75166027     +0.65929842
a   3.0301979      Node   177.55260     -0.65864220     -0.75178857
e   0.5843409      Incl.   25.27591     +0.03460193     +0.01181287
P   5.27           H   17.6           G   0.15
From 67 observations 2000 Mar. 9-23.

Ephemeris:
2000 EB107               a,e,i = 3.03, 0.58, 25                  q = 1.2595
Date    TT    R. A. (2000) Decl.     Delta      r     Elong.  Phase     V
2000 03 17    10 17.47   -00 34.0    0.496    1.465   157.3    15.2    17.7
2000 03 22    10 17.34   +03 49.4    0.479    1.438   152.4    18.7    17.7
2000 03 27    10 18.30   +08 26.4    0.467    1.412   146.7    22.8    17.8
2000 04 01    10 20.59   +13 07.2    0.462    1.388   140.6    27.2    17.9
2000 04 06    10 24.39   +17 41.9    0.462    1.365   134.4    31.6    17.9
2000 04 11    10 29.83   +22 01.8    0.467    1.344   128.6    35.7    18.1
2000 04 16    10 36.98   +26 00.4    0.476    1.325   123.1    39.4    18.2
2000 04 21    10 45.84   +29 33.5    0.488    1.309   118.2    42.6    18.3
2000 04 26    10 56.32   +32 38.8    0.503    1.294   113.8    45.4    18.4
2000 05 01    11 08.35   +35 15.4    0.520    1.282   110.0    47.6    18.5
2000 05 06    11 21.79   +37 23.4    0.538    1.272   106.7    49.4    18.6
2000 05 11    11 36.46   +39 03.6    0.558    1.265   103.9    50.8    18.7
2000 05 16    11 52.15   +40 17.4    0.578    1.261   101.6    51.8    18.8
2000 05 21    12 08.61   +41 06.2    0.598    1.260    99.7    52.4    18.9
2000 05 26    12 25.59   +41 31.3    0.618    1.261    98.3    52.7    19.0
2000 05 31    12 42.87   +41 34.1    0.639    1.264    97.2    52.7    19.1
2000 06 05    13 00.27   +41 16.1    0.660    1.271    96.4    52.5    19.2

2000 06 15    13 34.74   +39 43.8    0.703    1.292    95.7    51.5    19.3
2000 06 25    14 07.94   +37 07.4    0.747    1.322    95.9    49.9    19.4
2000 07 05    14 39.40   +33 39.1    0.796    1.361    96.6    47.9    19.6
2000 07 15    15 09.10   +29 33.0    0.850    1.408    97.5    45.7    19.7
2000 07 25    15 37.13   +25 03.4    0.912    1.460    98.3    43.5    19.9
2000 08 04    16 03.75   +20 24.4    0.986    1.518    98.7    41.3    20.1
2000 08 14    16 29.22   +15 49.4    1.071    1.580    98.6    39.3    20.3
2000 08 24    16 53.72   +11 29.4    1.170    1.645    97.6    37.5    20.5
2000 09 03    17 17.45   +07 32.1    1.282    1.712    96.0    35.9    20.8
2000 09 13    17 40.54   +04 02.6    1.408    1.781    93.6    34.3    21.0
2000 09 23    18 03.03   +01 03.1    1.547    1.851    90.5    32.8    21.3
2000 10 03    18 25.01   -01 26.5    1.696    1.922    86.9    31.3    21.5
2000 10 13    18 46.50   -03 27.2    1.855    1.993    82.8    29.8    21.7
2000 10 23    19 07.49   -05 01.3    2.021    2.064    78.3    28.2    21.9

Gareth V. Williams           (C) Copyright 2000 MPC           M.P.E.C. 2000-F29

Read MPEC 2000-F28 Read MPEC 2000-F30


Our Web policy. Index to the CBAT/MPC/ICQ pages.


Valid HTML 4.01!